Location: Goettingen
(51.5300°N, 9.9433°E)
Time: 03:07:15
(UTC+01:00)

ISS - Pass Details

Date: 14 November 2025
Orbit: 414 x 420 km, 51.6° (Epoch: 18 November)

Event Time Altitude Azimuth Distance (km) Brightness Sun altitude
Rises 18:58:59 0° 226° (SW) 2,344 0.8 -22.7°
Reaches altitude 10° 19:01:10 10° 217° (SW) 1,484 -0.5 -23.0°
Enters shadow 19:02:33 20° 202° (SSW) 1,009 -1.6 -23.3°
